Weather History for KFCM - May, 2013

Change the Weather History Date:

Wednesday, May 1, 2013

  Actual Average Record
Temperature  
Mean Temperature 44 °F -  
Max Temperature 55 °F 65 °F 82 °F (2001)
Min Temperature 33 °F 43 °F 33 °F (2005)
Degree Days  
Heating Degree Days 21    
Moisture  
Dew Point 33 °F    
Average Humidity 80    
Maximum Humidity 93    
Minimum Humidity 45    
Precipitation  
Precipitation 0.27 in - - ()
Sea Level Pressure  
Sea Level Pressure 30.29 in    
Wind  
Wind Speed 10 mph (NNW)    
Max Wind Speed 17 mph    
Max Gust Speed 25 mph    
Visibility 7 miles    
Events Rain , Snow    
Averages and records for this station are not official NWS values.
T = Trace of Precipitation, MM = Missing Value Source: NWS Daily Summary

Daily Weather History Graph

Daily Weather History Graph

Search for Another Location

Airport or City:

Trip Planner

Search our weather history database for the weather conditions in past years. The results will help you decide how hot, cold, wet, or windy it might be!

Date:

Astronomy

May. 01, 2013 Rise Set
Actual Time 6:03 AM CDT 8:19 PM CDT
Civil Twilight 5:30 AM CDT 8:51 PM CDT
Nautical Twilight 4:50 AM CDT 9:32 PM CDT
Astronomical Twilight 4:06 AM CDT 10:16 PM CDT
Moon 1:30 AM CDT (5/1) 11:42 AM CDT (5/1)
Length of Visible Light 15h 20m
Length of Day
14h 16m
Waning Gibbous, 59% of the Moon is Illuminated
May 1
Waning Gibbous
May 2
Last Quarter
May 9
New
May 17
First Quarter
May 24
Full

Hourly Weather History & Observations

Time (CDT) Temp. Windchill Dew Point Humidity Pressure Visibility Wind Dir Wind Speed Gust Speed Precip Events Conditions
12:53 AM 55.0 °F - 34.0 °F 45% 29.98 in 10.0 mi NNW 8.1 mph - N/A   Overcast
1:53 AM 54.0 °F - 34.0 °F 47% 30.03 in 10.0 mi NW 10.4 mph - N/A   Overcast
2:53 AM 52.0 °F - 32.0 °F 47% 30.05 in 10.0 mi NNW 15.0 mph 25.3 mph 0.00 in   Overcast
3:53 AM 50.0 °F - 33.1 °F 52% 30.07 in 10.0 mi NNW 4.6 mph - 0.00 in Rain Light Rain
4:53 AM 45.0 °F 40.1 °F 35.1 °F 68% 30.09 in 10.0 mi NNW 9.2 mph - 0.01 in Rain Light Rain
5:53 AM 43.0 °F 38.2 °F 36.0 °F 76% 30.16 in 8.0 mi WNW 8.1 mph - 0.04 in Rain Light Rain
6:20 AM 42.8 °F 39.3 °F 37.4 °F 81% 30.18 in 4.0 mi WNW 5.8 mph - 0.04 in Rain Rain
6:53 AM 41.0 °F - 36.0 °F 82% 30.21 in 3.0 mi Calm Calm - 0.12 in Rain Rain
7:36 AM 41.0 °F 33.5 °F 37.4 °F 87% 30.21 in 6.0 mi NW 13.8 mph 19.6 mph 0.02 in Rain Light Rain
7:53 AM 41.0 °F 33.5 °F 36.0 °F 82% 30.24 in 8.0 mi NW 13.8 mph 19.6 mph 0.02 in Rain Light Rain
8:09 AM 39.2 °F 31.6 °F 35.6 °F 87% 30.25 in 10.0 mi NNW 12.7 mph - 0.00 in Rain Light Rain
8:42 AM 37.4 °F 27.8 °F 33.8 °F 87% 30.26 in 6.0 mi NNW 17.3 mph 21.9 mph 0.00 in Rain Light Rain
8:53 AM 37.0 °F 28.5 °F 34.0 °F 89% 30.27 in 5.0 mi NNW 13.8 mph - 0.00 in Rain Light Rain
9:02 AM 37.4 °F 29.3 °F 33.8 °F 87% 30.25 in 6.0 mi NNW 12.7 mph - 0.00 in Rain Light Rain
9:19 AM 37.4 °F 28.5 °F 33.8 °F 87% 30.26 in 8.0 mi NNW 15.0 mph 19.6 mph 0.00 in Rain Light Rain
9:28 AM 35.6 °F 26.2 °F 33.8 °F 93% 30.26 in 9.0 mi NW 15.0 mph - 0.00 in Rain Light Rain
9:38 AM 35.6 °F 27.1 °F 33.8 °F 93% 30.26 in 8.0 mi NW 12.7 mph 21.9 mph 0.00 in Rain Light Rain
9:49 AM 35.6 °F 27.1 °F 33.8 °F 93% 30.26 in 7.0 mi NNW 12.7 mph 20.7 mph 0.00 in Rain Light Rain
9:53 AM 36.0 °F 27.5 °F 33.1 °F 89% 30.28 in 7.0 mi NNW 12.7 mph - 0.00 in Rain Light Rain
10:53 AM 36.0 °F 28.0 °F 33.1 °F 89% 30.29 in 6.0 mi NW 11.5 mph - 0.02 in Rain Light Rain
11:10 AM 35.6 °F 25.5 °F 33.8 °F 93% 30.31 in 8.0 mi NW 17.3 mph - 0.00 in   Overcast
11:22 AM 35.6 °F 26.2 °F 32.0 °F 87% 30.31 in 8.0 mi NW 15.0 mph 21.9 mph 0.00 in   Overcast
11:42 AM 35.6 °F 28.6 °F 32.0 °F 87% 30.30 in 4.0 mi NNW 9.2 mph 20.7 mph 0.00 in Rain Light Rain
11:53 AM 35.1 °F 26.9 °F 32.0 °F 89% 30.33 in 3.0 mi NNW 11.5 mph - 0.00 in Snow Light Snow
12:09 PM 35.6 °F 28.6 °F 33.8 °F 93% 30.30 in 3.0 mi NNW 9.2 mph - 0.01 in Snow Light Snow
12:53 PM 35.1 °F 25.9 °F 32.0 °F 89% 30.32 in 3.0 mi NNW 13.8 mph - 0.04 in Rain Light Rain
1:09 PM 33.8 °F 25.3 °F 32.0 °F 93% 30.30 in 1.8 mi NNW 11.5 mph - 0.02 in Snow Light Snow
1:22 PM 33.8 °F 25.3 °F 30.2 °F 87% 30.31 in 2.0 mi NNW 11.5 mph - 0.03 in Snow Light Snow
1:36 PM 35.6 °F 26.6 °F 30.2 °F 81% 30.32 in 3.0 mi NNW 13.8 mph - 0.03 in Snow Light Snow
2:02 PM 35.6 °F 27.5 °F 30.2 °F 81% 30.34 in 4.0 mi NNW 11.5 mph 18.4 mph 0.00 in Snow Light Snow
2:13 PM 35.6 °F 27.1 °F 30.2 °F 81% 30.34 in 2.5 mi NNW 12.7 mph - 0.00 in Snow Light Snow
3:00 PM 37.4 °F 34.9 °F 32.0 °F 81% 30.35 in 5.0 mi NNE 3.5 mph - 0.00 in Snow Light Snow
3:53 PM 37.9 °F - 33.1 °F 83% 30.39 in 10.0 mi Calm Calm - 0.00 in   Overcast
4:53 PM 39.9 °F 35.1 °F 34.0 °F 79% 30.42 in 9.0 mi NNW 6.9 mph - 0.00 in Rain Light Rain
5:18 PM 39.2 °F 31.6 °F 32.0 °F 75% 30.40 in 6.0 mi North 12.7 mph 21.9 mph 0.00 in Rain Light Rain
5:53 PM 37.9 °F 33.5 °F 33.1 °F 83% 30.43 in 8.0 mi NE 5.8 mph - 0.02 in Rain Light Rain
6:53 PM 39.0 °F - 34.0 °F 82% 30.44 in 10.0 mi Calm Calm - 0.00 in   Overcast
7:53 PM 39.0 °F - 35.1 °F 86% 30.45 in 10.0 mi Calm Calm - N/A   Overcast
8:53 PM 39.0 °F - 35.1 °F 86% 30.46 in 9.0 mi Calm Calm - N/A   Overcast
9:53 PM 41.0 °F 37.1 °F 30.0 °F 65% 30.47 in 10.0 mi North 5.8 mph - N/A   Overcast
10:53 PM 41.0 °F 37.1 °F 28.9 °F 62% 30.48 in 10.0 mi North 5.8 mph - N/A   Overcast
11:53 PM 41.0 °F 34.7 °F 27.0 °F 57% 30.49 in 10.0 mi North 10.4 mph - N/A   Overcast